Location: Fossil View Observatory
(30.3980°N, 99.3522°W)
Time: 23:30:27
(UTC-05:00)

ISS - Pass Details

Date: 23 February 2019
Orbit: 406 x 411 km, 51.6° (Epoch: 23 March)

Event Time Altitude Azimuth Distance (km) Brightness Sun altitude
Exits shadow 05:36:32 35° 167° (SSE) 671 -2.7 -20.9°
Maximum altitude 05:37:16 41° 131° (SE) 592 -2.7 -20.8°
Drops below altitude 10° 05:40:22 10° 59° (ENE) 1,458 -0.2 -20.1°
Sets 05:42:31 0° 52° (NE) 2,321 0.8 -19.6°
